Glenwood, MN

5:01 AM CST on December 09, 2016 (GMT -0600)
Glenwood Municipal

Weather History for KGHW - November, 2012

Change the Weather History Date:

Thursday, November 1, 2012

  Actual Average Record
Temperature  
Mean Temperature 35 °F -  
Max Temperature 46 °F 48 °F 68 °F (1958)
Min Temperature 24 °F 31 °F 7 °F (1951)
Degree Days  
Heating Degree Days 30    
Moisture  
Dew Point 27 °F    
Average Humidity 69    
Maximum Humidity 87    
Minimum Humidity 45    
Precipitation  
Precipitation 0.00 in - - ()
Sea Level Pressure  
Sea Level Pressure 30.02 in    
Wind  
Wind Speed 12 mph (NNW)    
Max Wind Speed 17 mph    
Max Gust Speed 24 mph    
Visibility 10 miles    
Events      
Averages and records for this station are not official NWS values.
T = Trace of Precipitation, MM = Missing Value Source: NWS Daily Summary

Daily Weather History Graph

Daily Weather History Graph

Search for Another Location

Airport or City:

Trip Planner

Search our weather history database for the weather conditions in past years. The results will help you decide how hot, cold, wet, or windy it might be!

Date:

Astronomy

Nov. 01, 2012 Rise Set
Actual Time 8:01 AM CDT 6:07 PM CDT
Civil Twilight 7:30 AM CDT 6:38 PM CDT
Nautical Twilight 6:55 AM CDT 7:13 PM CDT
Astronomical Twilight 6:21 AM CDT 7:47 PM CDT
Moon 7:58 PM CDT (11/1) 10:41 AM CDT (11/1)
Length of Visible Light 11h 07m
Length of Day
10h 05m
Waning Gibbous, 93% of the Moon is Illuminated
Nov 1
Waning Gibbous
Nov 6
Last Quarter
Nov 13
New
Nov 20
First Quarter
Nov 28
Full

Hourly Weather History & Observations

Time (CDT) Temp. Windchill Dew Point Humidity Pressure Visibility Wind Dir Wind Speed Gust Speed Precip Events Conditions
12:13 AM 46.4 °F 41.9 °F 35.6 °F 66% 29.95 in 10.0 mi NNW 9.2 mph - N/A   Overcast
12:34 AM 44.6 °F 39.7 °F 37.4 °F 76% 29.96 in 10.0 mi NNW 9.2 mph - N/A   Scattered Clouds
12:53 AM 42.8 °F 37.5 °F 37.4 °F 81% 29.96 in 10.0 mi NNW 9.2 mph - N/A   Scattered Clouds
1:13 AM 42.8 °F 37.0 °F 37.4 °F 81% 29.97 in 10.0 mi NNW 10.4 mph - N/A   Scattered Clouds
1:34 AM 41.0 °F 34.7 °F 35.6 °F 81% 29.97 in 10.0 mi NNW 10.4 mph - N/A   Scattered Clouds
1:53 AM 39.2 °F 32.5 °F 35.6 °F 87% 29.98 in 10.0 mi NNW 10.4 mph - N/A   Clear
2:13 AM 39.2 °F 33.6 °F 35.6 °F 87% 29.98 in 10.0 mi NW 8.1 mph - N/A   Mostly Cloudy
2:33 AM 41.0 °F 33.1 °F 37.4 °F 87% 29.98 in 10.0 mi NW 15.0 mph 19.6 mph N/A   Mostly Cloudy
2:53 AM 41.0 °F 33.5 °F 37.4 °F 87% 29.98 in 10.0 mi NW 13.8 mph - N/A   Mostly Cloudy
3:13 AM 41.0 °F 32.5 °F 35.6 °F 81% 29.98 in 10.0 mi NNW 17.3 mph - N/A   Overcast
3:33 AM 41.0 °F 33.5 °F 35.6 °F 81% 29.99 in 10.0 mi NW 13.8 mph - N/A   Overcast
3:53 AM 39.2 °F 30.5 °F 35.6 °F 87% 29.99 in 10.0 mi NNW 16.1 mph 19.6 mph N/A   Overcast
4:14 AM 39.2 °F 31.2 °F 35.6 °F 87% 29.99 in 10.0 mi NNW 13.8 mph 20.7 mph N/A   Overcast
4:33 AM 39.2 °F 31.2 °F 33.8 °F 81% 29.99 in 10.0 mi NNW 13.8 mph 19.6 mph N/A   Overcast
4:53 AM 39.2 °F 30.8 °F 32.0 °F 75% 29.99 in 10.0 mi NNW 15.0 mph 24.2 mph N/A   Overcast
5:14 AM 39.2 °F 30.2 °F 30.2 °F 70% 30.00 in 10.0 mi NNW 17.3 mph - N/A   Overcast
5:33 AM 39.2 °F 31.6 °F 30.2 °F 70% 30.00 in 10.0 mi NNW 12.7 mph 20.7 mph N/A   Overcast
5:53 AM 39.2 °F 30.5 °F 32.0 °F 75% 30.00 in 10.0 mi NW 16.1 mph 19.6 mph N/A   Overcast
6:14 AM 37.4 °F 28.9 °F 30.2 °F 75% 30.01 in 10.0 mi NNW 13.8 mph 23.0 mph N/A   Overcast
6:33 AM 37.4 °F 28.5 °F 30.2 °F 75% 30.02 in 10.0 mi NNW 15.0 mph - N/A   Overcast
6:53 AM 37.4 °F 29.3 °F 30.2 °F 75% 30.02 in 10.0 mi NNW 12.7 mph - N/A   Overcast
7:14 AM 35.6 °F 26.2 °F 28.4 °F 75% 30.02 in 10.0 mi North 15.0 mph 18.4 mph N/A   Overcast
7:33 AM 35.6 °F 26.6 °F 28.4 °F 75% 30.02 in 10.0 mi NNW 13.8 mph 19.6 mph N/A   Overcast
7:53 AM 35.6 °F 25.9 °F 28.4 °F 75% 30.03 in 10.0 mi NNW 16.1 mph - N/A   Overcast
8:14 AM 35.6 °F 26.6 °F 28.4 °F 75% 30.04 in 10.0 mi NNW 13.8 mph 20.7 mph N/A   Overcast
8:33 AM 35.6 °F 26.2 °F 26.6 °F 70% 30.03 in 10.0 mi North 15.0 mph 18.4 mph N/A   Overcast
8:53 AM 35.6 °F 26.6 °F 26.6 °F 70% 30.04 in 10.0 mi North 13.8 mph 17.3 mph N/A   Overcast
9:14 AM 35.6 °F 26.2 °F 26.6 °F 70% 30.04 in 10.0 mi North 15.0 mph - N/A   Overcast
9:33 AM 33.8 °F 23.5 °F 26.6 °F 75% 30.05 in 10.0 mi North 16.1 mph - N/A   Mostly Cloudy
9:53 AM 35.6 °F 26.6 °F 26.6 °F 70% 30.05 in 10.0 mi NNW 13.8 mph 19.6 mph N/A   Mostly Cloudy
10:14 AM 37.4 °F 29.8 °F 26.6 °F 65% 30.05 in 10.0 mi North 11.5 mph - N/A   Mostly Cloudy
10:33 AM 35.6 °F 26.2 °F 24.8 °F 65% 30.06 in 10.0 mi NNW 15.0 mph 18.4 mph N/A   Mostly Cloudy
10:53 AM 35.6 °F 25.5 °F 24.8 °F 65% 30.05 in 10.0 mi North 17.3 mph - N/A   Scattered Clouds
11:13 AM 35.6 °F 26.2 °F 24.8 °F 65% 30.04 in 10.0 mi North 15.0 mph 18.4 mph N/A   Clear
11:33 AM 37.4 °F 29.3 °F 24.8 °F 60% 30.05 in 10.0 mi North 12.7 mph 16.1 mph N/A   Clear
11:53 AM 37.4 °F 30.3 °F 24.8 °F 60% 30.05 in 10.0 mi NNW 10.4 mph - N/A   Clear
12:14 PM 37.4 °F 31.4 °F 24.8 °F 60% 30.05 in 10.0 mi North 8.1 mph - N/A   Clear
12:33 PM 39.2 °F 32.0 °F 23.0 °F 52% 30.04 in 10.0 mi North 11.5 mph 16.1 mph N/A   Clear
12:53 PM 39.2 °F 33.0 °F 23.0 °F 52% 30.04 in 10.0 mi North 9.2 mph - N/A   Clear
1:13 PM 39.2 °F 32.5 °F 21.2 °F 49% 30.04 in 10.0 mi North 10.4 mph - N/A   Clear
1:33 PM 39.2 °F 32.5 °F 23.0 °F 52% 30.03 in 10.0 mi North 10.4 mph - N/A   Clear
1:53 PM 41.0 °F 33.9 °F 21.2 °F 45% 30.02 in 10.0 mi NNW 12.7 mph 19.6 mph N/A   Clear
2:13 PM 39.2 °F 32.0 °F 21.2 °F 49% 30.02 in 10.0 mi NNW 11.5 mph - N/A   Clear
2:33 PM 41.0 °F 33.5 °F 21.2 °F 45% 30.01 in 10.0 mi NNW 13.8 mph - N/A   Clear
2:53 PM 41.0 °F 34.3 °F 21.2 °F 45% 30.01 in 10.0 mi NNW 11.5 mph - N/A   Clear
3:13 PM 41.0 °F 34.7 °F 21.2 °F 45% 30.01 in 10.0 mi NNW 10.4 mph 16.1 mph N/A   Clear
3:33 PM 41.0 °F 33.9 °F 21.2 °F 45% 30.01 in 10.0 mi NNW 12.7 mph - N/A   Clear
3:54 PM 41.0 °F 33.9 °F 21.2 °F 45% 30.02 in 10.0 mi NNW 12.7 mph 16.1 mph N/A   Clear
4:13 PM 41.0 °F 34.3 °F 21.2 °F 45% 30.02 in 10.0 mi NW 11.5 mph - N/A   Clear
4:33 PM 39.2 °F 32.0 °F 21.2 °F 49% 30.02 in 10.0 mi North 11.5 mph - N/A   Clear
4:53 PM 39.2 °F 33.0 °F 21.2 °F 49% 30.02 in 10.0 mi NNW 9.2 mph - N/A   Clear
5:13 PM 37.4 °F 30.8 °F 21.2 °F 52% 30.02 in 10.0 mi NNW 9.2 mph - N/A   Clear
5:33 PM 37.4 °F 30.3 °F 21.2 °F 52% 30.02 in 10.0 mi NNW 10.4 mph - N/A   Clear
5:53 PM 35.6 °F 29.2 °F 24.8 °F 65% 30.02 in 10.0 mi NNW 8.1 mph - N/A   Clear
6:13 PM 33.8 °F 27.0 °F 24.8 °F 70% 30.02 in 10.0 mi NNW 8.1 mph - N/A   Clear
6:33 PM 32.0 °F 25.6 °F 24.8 °F 75% 30.03 in 10.0 mi NNW 6.9 mph - N/A   Clear
6:53 PM 30.2 °F 23.4 °F 23.0 °F 75% 30.03 in 10.0 mi NNW 6.9 mph - N/A   Clear
7:13 PM 30.2 °F 22.6 °F 23.0 °F 75% 30.03 in 10.0 mi North 8.1 mph - N/A   Clear
7:34 PM 28.4 °F 20.4 °F 23.0 °F 80% 30.04 in 10.0 mi North 8.1 mph - N/A   Clear
7:53 PM 30.2 °F 21.9 °F 23.0 °F 75% 30.04 in 10.0 mi NNE 9.2 mph - N/A   Clear
8:13 PM 30.2 °F 21.9 °F 21.2 °F 69% 30.05 in 10.0 mi NNE 9.2 mph - N/A   Clear
8:34 PM 28.4 °F 19.7 °F 21.2 °F 74% 30.05 in 10.0 mi NNE 9.2 mph - N/A   Clear
8:53 PM 28.4 °F 18.5 °F 21.2 °F 74% 30.05 in 10.0 mi NNE 11.5 mph - N/A   Clear
9:13 PM 28.4 °F 19.1 °F 21.2 °F 74% 30.05 in 10.0 mi NNE 10.4 mph - N/A   Clear
9:33 PM 26.6 °F 16.8 °F 21.2 °F 80% 30.05 in 10.0 mi NNE 10.4 mph - N/A   Clear
9:53 PM 28.4 °F 19.7 °F 21.2 °F 74% 30.06 in 10.0 mi NNE 9.2 mph - N/A   Clear
10:13 PM 26.6 °F 18.2 °F 21.2 °F 80% 30.05 in 10.0 mi NNE 8.1 mph - N/A   Clear
10:33 PM 26.6 °F 19.1 °F 21.2 °F 80% 30.05 in 10.0 mi NE 6.9 mph - N/A   Clear
10:53 PM 24.8 °F 19.1 °F 21.2 °F 86% 30.06 in 10.0 mi NNE 4.6 mph - N/A   Clear
11:14 PM 26.6 °F 19.1 °F 21.2 °F 80% 30.06 in 10.0 mi NNE 6.9 mph - N/A   Clear
11:33 PM 26.6 °F 18.2 °F 21.2 °F 80% 30.06 in 10.0 mi NNE 8.1 mph - N/A   Clear
11:53 PM 26.6 °F 20.0 °F 21.2 °F 80% 30.07 in 10.0 mi NE 5.8 mph - N/A   Clear